Other Public Products
Issued by NWS Charleston, SC

Current Version | Previous Version | Graphics & Text | Print | Product List | Glossary On
Versions: 1 2 3 4 5 6 7 8 9 10 11 12 13 14 15 16 17 18 19 20 21 22 23 24 25 26 27 28 29 30 31 32 33 34 35 36 37 38 39 40 41 42 43 44 45 46 47 48 49 50
000 FPUS82 KCHS 182312 OPUCHS TEST...KCHS/KSAV Gateway Observations...TEST National Weather Service Charleston SC 600 PM EST THU JAN 18 2018 NOTE: "fair" indicates few or no clouds below 12,000 feet with no significant weather and/or obstructions to visibility. SCZ050-WAZ558-NCZ071-TXZ119-213-PAZ071-DCZ001-FLZ074-172-MI076- NYZ176-178-MAZ016-IL014-TNZ027-NJZ106-GAZ044-MD014-190000- ...Gateway Observations for Charleston International... CITY SKY/WX TMP DP RH WIND PRES REMARKS Chas Airport FAIR 42 12 29 NW3 30.31R Seattle LGT RAIN 45 42 89 S5 29.76F FOG Charlotte FAIR 34 23 64 SW6 30.24F WCI 29 Dallas DFW CLOUDY 44 13 28 S14 30.34S Dallas Love MOCLDY 43 14 31 S14 30.36F Philladelphia FAIR 33 10 38 NW10 30.05R WCI 25 Wash National FAIR 44 3 18 NW5 30.07R Baltimore FAIR 37 8 30 W10 30.04R WCI 30 Miami MOCLDY 60 47 61 NW8 30.23S Detroit FAIR 25 16 68 SW17 30.01F WCI 12 Newark FAIR 30 11 45 W12G20 30.01R WCI 20 Laguardia FAIR 31 14 49 NW13 29.99R WCI 21 J F K FAIR 31 13 47 NW16G22 30.00R WCI 20 Boston Logan FAIR 29 16 58 NW10G22 29.90R WCI 20 Ft. Lauderdale MOCLDY 56 49 77 N7 30.22S Chicago O`Hare FAIR 31 19 61 SW18G25 29.98R WCI 19 Chicago Midway FAIR 31 20 63 SW18G25 30.00S WCI 19 Houston Bush CLOUDY 38 18 44 SE3 30.45S Houston Hobby CLOUDY 37 21 52 CALM 30.44F Nashville FAIR 31 16 54 SW6 30.39F WCI 25 Atlanta FAIR 37 14 38 W9 30.34R WCI 30 $$ GAZ044-118-TXZ119-213-NCZ071-DCZ001-MDZ014-506-PAZ021-071-NJZ106- NYZ176-178-MAZ106-OHZ011-021-055-MIZ076-KYZ091-ILZ014-INZ047- MNZ060-ONZ431-190000- ...Gateway Observations for Savannah International... CITY SKY/WX TMP DP RH WIND PRES REMARKS Savannah Arpt FAIR 43 10 26 NW6 30.32F Atlanta FAIR 37 14 38 W9 30.34R WCI 30 Charlotte FAIR 34 23 64 SW6 30.24F WCI 29 Dallas DFW CLOUDY 44 13 28 S14 30.34S Houston Bush CLOUDY 38 18 44 SE3 30.45S Wash National FAIR 44 3 18 NW5 30.07R Wash Dulles FAIR 39 4 23 W6 30.06R WCI 35 Baltimore FAIR 37 8 30 W10 30.04R WCI 30 Philadelphia FAIR 33 10 38 NW10 30.05R WCI 25 Newark FAIR 30 11 45 W12G20 30.01R WCI 20 Laguardia FAIR 31 14 49 NW13 29.99R WCI 21 J F K FAIR 31 13 47 NW16G22 30.00R WCI 20 Boston FAIR 29 16 58 NW10G22 29.90R WCI 20 Pittsburg FAIR 25 10 53 SW6 30.11S WCI 18 Akron FAIR 25 11 55 SW16 30.09S WCI 12 Cleveland FAIR 29 14 53 SW18G28 30.10S WCI 16 Cincinnati FAIR 28 14 55 S8 30.22F WCI 20 Columbus FAIR 25 13 59 SW14 30.20F WCI 13 Detroit FAIR 25 16 68 SW17 30.01F WCI 12 Chicago O`Hare FAIR 31 19 61 SW18G25 29.98R WCI 19 Minneapolis CLOUDY 39 28 64 SW3 29.80R Indianapolis FAIR 29 13 51 SW14 30.17S WCI 18 Toronto Canada CLOUDY 23 14 68 SW13 29.96F WCI 11 $$

USA.gov is the U.S. government's official web portal to all federal, state and local government web resources and services.